Weather History for KLBT - June, 2014

Change the Weather History Date:

Wednesday, June 4, 2014

  Actual Average Record
Temperature  
Mean Temperature 80 °F 75 °F  
Max Temperature 96 °F 86 °F 97 °F (2008)
Min Temperature 63 °F 64 °F 61 °F (2011)
Degree Days  
Heating Degree Days 0 0  
Month to date heating degree days 0 0  
Since 1 June heating degree days 0 0  
Since 1 July heating degree days 2945 2761  
Cooling Degree Days 15 10  
Month to date cooling degree days 31 40  
Year to date cooling degree days 319 290  
Since 1 June cooling degree days 31 40  
Growing Degree Days 30 (Base 50)    
Moisture  
Dew Point 65 °F    
Average Humidity 62    
Maximum Humidity 93    
Minimum Humidity 31    
Precipitation  
Precipitation 0.00 in 0.17 in 2.20 in (2004)
Month to date precipitation 0.00 0.68  
Year to date precipitation 17.26 15.75  
Sea Level Pressure  
Sea Level Pressure 29.88 in    
Wind  
Wind Speed 6 mph (WSW)    
Max Wind Speed 14 mph    
Max Gust Speed 19 mph    
Visibility 9 miles    
Events      
T = Trace of Precipitation, MM = Missing Value Source: NWS Daily Summary

Daily Weather History Graph

Daily Weather History Graph

Search for Another Location

Airport or City:

Trip Planner

Search our weather history database for the weather conditions in past years. The results will help you decide how hot, cold, wet, or windy it might be!

Date:

Astronomy

Jun. 04, 2014 Rise Set
Actual Time 6:03 AM EDT 8:25 PM EDT
Civil Twilight 5:34 AM EDT 8:54 PM EDT
Nautical Twilight 4:58 AM EDT 9:30 PM EDT
Astronomical Twilight 4:19 AM EDT 10:09 PM EDT
Moon 12:10 PM EDT (6/4) 12:33 AM EDT (6/4)
Length of Visible Light 15h 20m
Length of Day
14h 22m
Waxing Crescent, 39% of the Moon is Illuminated
Jun 4
Waxing Crescent
Jun 5
First Quarter
Jun 13
Full
Jun 19
Last Quarter
Jun 27
New

Hourly Weather History & Observations

Time (EDT) Temp. Heat Index Dew Point Humidity Pressure Visibility Wind Dir Wind Speed Gust Speed Precip Events Conditions
1:54 AM 68.0 °F - 64.0 °F 87% 29.93 in 10.0 mi Variable 3.5 mph - N/A   Clear
2:54 AM 69.1 °F - 64.9 °F 87% 29.91 in 10.0 mi WSW 5.8 mph - N/A   Clear
3:54 AM 66.0 °F - 64.0 °F 93% 29.91 in 9.0 mi Calm Calm - N/A   Clear
4:54 AM 64.9 °F - 63.0 °F 93% 29.91 in 8.0 mi Calm Calm - N/A   Clear
5:54 AM 64.0 °F - 63.0 °F 96% 29.93 in 6.0 mi Calm Calm - N/A   Clear
6:54 AM 66.0 °F - 64.0 °F 93% 29.93 in 5.0 mi Calm Calm - N/A   Clear
7:54 AM 72.0 °F - 66.0 °F 81% 29.94 in 9.0 mi WSW 4.6 mph - N/A   Clear
8:54 AM 78.1 °F - 66.9 °F 68% 29.94 in 10.0 mi West 5.8 mph - N/A   Clear
9:54 AM 82.0 °F 84.5 °F 66.9 °F 60% 29.93 in 10.0 mi Variable 4.6 mph - N/A   Clear
10:54 AM 86.0 °F 88.2 °F 66.0 °F 51% 29.92 in 10.0 mi West 6.9 mph - N/A   Clear
11:54 AM 90.0 °F 91.3 °F 64.0 °F 42% 29.91 in 10.0 mi NW 5.8 mph - N/A   Clear
12:54 PM 91.9 °F 92.9 °F 63.0 °F 38% 29.90 in 10.0 mi West 6.9 mph - N/A   Clear
1:54 PM 91.9 °F 92.5 °F 62.1 °F 37% 29.89 in 10.0 mi West 9.2 mph - N/A   Partly Cloudy
3:54 PM 95.0 °F 95.2 °F 61.0 °F 32% 29.83 in 10.0 mi WSW 9.2 mph - N/A   Partly Cloudy
4:54 PM 91.0 °F 91.5 °F 62.1 °F 38% 29.82 in 10.0 mi SSW 6.9 mph - N/A   Scattered Clouds
5:54 PM 91.9 °F 93.3 °F 64.0 °F 39% 29.81 in 10.0 mi SW 8.1 mph - N/A   Partly Cloudy
6:54 PM 90.0 °F 91.3 °F 64.0 °F 42% 29.80 in 10.0 mi SW 8.1 mph - N/A   Clear
7:54 PM 86.0 °F 87.6 °F 64.9 °F 49% 29.81 in 10.0 mi SSW 5.8 mph - N/A   Clear
8:54 PM 82.9 °F 85.0 °F 66.0 °F 56% 29.81 in 10.0 mi SSW 5.8 mph - N/A   Clear
9:54 PM 81.0 °F 83.3 °F 66.9 °F 62% 29.83 in 10.0 mi SSW 6.9 mph - N/A   Clear
11:54 PM 79.0 °F - 69.1 °F 72% 29.83 in 10.0 mi SSW 9.2 mph - N/A   Clear